WESTFORD NEEDLES, 19891

Orbit data source: Space-Track

WESTFORD NEEDLES, 19891 is space debris in LEO originally from a launch on Thu, 09 May 1963 UTC launched from the Air Force Western Test Range (AFWTR). Debris objects in space refer to the collection of defunct objects orbiting the Earth. Examples of debris include non-operational satellites, rocket bodies, and fragments generated from explosions, collisions, or faulty payload assembly.

Loading next visibility...
Identifier
19891, 1963-014ET
Orbit
LEO
Country
Flag of USUS
Related business
Manufacturer
Unknown
Mission
Spacecraft
Bus & Motor
Unknown
Mass
Unknown
Launch date (UTC)
1963-05-09 (62 years ago)
Launch vehicle
Unknown
Launch site
Air Force Western Test Range (AFWTR)
Object type
Payload
Rocket body
Debris
Shape & HBR
Unknown shape, 0.2 m
Radar Cross Section
Medium (>0.1 m² and <1 m²)

Expand to show TLE details & history
Last TLE update: 1 month ago

TLE from 1 month ago
0 WESTFORD NEEDLES
1 19891U 63014ET  25267.26406243 -.00000119  00000-0 -53523-1 0  9993
2 19891  87.2754 181.0949 0307077 193.5952 327.8333  8.66881591366919
Epoch: 2025-09-24T06:20Z
TLE epoch observation values (Epoch: 2025-09-24T06:20:14.993Z)
Latitude
20.48639°
Longitude
-98.32426°
Altitude
3,376.218 km
Speed
6.476 km/s
True Right ascension
00h 00m 19s
True Declination
20° 24' 15"
Sunlit
Object was in full shadow at epoch
Visualization orbit readout
Latitude
Unknown
Longitude
Unknown
Altitude
Unknown
Speed
Unknown
Apparent Right ascension
Unknown
Apparent Declination
Unknown
Sunlit
N/A
Visualization observer readout
Local Sidereal Time
08:03:22
Azimuth
Unknown
Elevation
Unknown
Doppler factor
Unknown
Orbital elements
Apogee altitude
3,936.87 km
Perigee altitude
3,322.243 km
Semi-major axis
10,007.693 km
Eccentricity
0.03071
Inclination
87.2754°
RAAN
181.0949°
Arg. of periapsis
193.5952°
True anomaly
325.89747°
Mean anomaly
327.8333°
Eccentric anomaly
326.87175°
Mean motion
2.16791 °/min
Orbital period
166.06 mins
BSTAR
-0.053523
Loading maneuver chart data...
Computing Atmospheric mass density...

Documentation

Showing up to 5 results
|